Probability
0 0 0 0 1 0 0 1 2 2 2 3 2 3 8 11 12 14 17 19 18 19 20 21 21 21 21 22 23 24 24 24 23 20 16 14 10 8 6 3 2 1 1 1
0 0 0 0 1 0 0 1 2 1 1 2 1 2 6 10 12 13 16 18 19 19 20 22 22 21 21 21 21 22 23 23 21 18 15 13 11 9 7 5 4 3 2 2
0 0 0 0 1 1 1 1 1 0 1 2 1 2 4 8 10 11 14 19 21 20 21 22 23 23 23 22 20 21 22 20 17 15 14 13 12 10 8 8 7 6 4 4
0 0 0 0 0 1 1 1 0 0 1 2 2 2 4 5 7 9 12 17 22 22 20 20 21 23 23 21 20 21 20 19 17 17 16 15 13 10 10 12 12 10 7 6
0 0 0 0 0 1 1 0 0 0 0 1 1 1 2 3 4 7 11 16 22 24 20 16 16 18 20 20 22 23 22 20 20 20 19 16 13 12 13 15 16 14 11 9
0 0 0 0 0 0 0 0 0 0 0 0 0 0 1 2 3 6 11 18 23 24 19 15 13 15 18 21 24 25 24 21 20 20 18 16 14 15 16 18 17 16 14 13
0 0 0 0 0 0 0 0 0 0 0 0 0 1 3 6 6 9 14 20 22 21 17 16 14 15 19 23 25 25 22 20 19 18 15 14 14 17 18 18 16 15 15 15
0 0 0 0 0 0 0 0 0 0 0 0 0 2 5 8 9 11 16 19 19 18 17 17 17 19 22 24 23 22 21 18 15 13 12 11 12 15 16 14 12 12 13 13
0 0 0 0 0 0 0 0 0 0 0 0 1 3 5 7 8 11 13 14 14 16 18 18 19 21 22 21 19 18 17 14 10 9 8 8 8 11 11 9 7 8 9 8
0 0 0 0 0 0 0 0 0 0 0 0 1 3 4 5 7 7 9 10 12 15 18 18 18 19 19 17 14 13 12 9 7 6 6 5 5 7 6 5 4 5 5 3
0 0 0 0 0 0 0 0 0 0 0 0 0 1 4 8 8 8 8 10 13 15 17 15 14 14 15 13 12 10 9 7 5 5 4 3 3 4 3 3 3 3 2 1
0 0 0 0 0 0 0 0 0 0 0 0 0 1 4 9 11 10 10 12 13 15 14 12 11 11 11 10 9 9 9 7 5 4 4 4 4 3 2 2 2 1 0 0
0 0 0 0 0 0 0 0 0 0 0 0 0 1 3 7 9 9 10 10 11 12 12 10 8 8 8 7 6 7 7 6 4 4 5 5 5 4 3 1 1 0 0 0
0 0 0 0 0 0 0 0 0 0 0 0 0 0 2 4 6 7 8 8 8 9 9 9 7 6 7 6 5 4 5 4 4 4 4 4 4 5 4 1 0 0 0 0
1 1 0 0 0 0 0 0 0 0 0 0 0 0 3 5 5 5 6 6 6 7 7 7 6 5 6 5 4 3 3 3 3 3 3 3 3 4 3 1 0 0 0 0
2 1 0 0 0 0 0 0 0 0 0 0 0 2 5 7 6 4 4 4 5 6 6 6 6 5 5 5 4 3 3 3 3 3 3 3 2 2 1 0 0 0 0 0
1 1 0 0 0 0 0 0 0 0 0 0 1 2 4 4 4 2 2 3 4 5 6 5 5 5 5 5 4 3 3 3 3 2 2 1 1 1 0 0 0 0 0 0
0 0 0 0 0 0 0 0 0 0 0 0 1 2 2 1 1 1 2 3 3 4 5 4 4 5 5 4 3 3 3 2 1 1 1 0 0 0 0 0 0 0 0 0
0 0 0 0 0 0 0 0 0 0 0 0 0 0 0 0 0 0 1 2 2 3 4 4 5 5 4 3 3 3 1 1 0 0 0 0 0 0 0 0 0 0 0 0
0 0 0 0 0 0 0 0 0 0 0 0 0 0 0 0 0 1 2 2 2 2 3 4 5 4 3 2 2 2 1 0 0 0 0 0 0 0 0 0 0 0 0 0
1 1 0 0 0 0 0 0 0 0 0 0 0 0 0 0 0 1 3 3 2 1 2 3 3 2 1 1 1 1 0 0 0 0 0 0 0 0 0 0 0 0 0 0
0 0 0 0 0 0 0 0 0 0 0 0 0 0 0 0 1 2 3 3 2 1 1 3 2 1 0 0 0 0 0 0 0 0 0 0 0 0 0 0 0 0 0 0
0 0 0 0 0 0 0 0 0 0 0 0 0 0 0 0 1 2 3 3 2 1 2 3 2 1 0 0 0 0 0 0 0 0 0 0 0 0 0 0 0 0 0 0
1 1 0 0 0 0 0 0 0 0 0 0 0 0 0 1 1 2 3 3 2 1 1 2 2 1 0 0 0 0 0 0 0 0 0 0 0 0 0 0 0 0 0 0
3 2 1 0 0 0 0 0 0 0 0 1 1 1 0 0 1 2 2 2 1 1 1 1 1 0 0 0 0 0 0 0 0 0 0 0 0 0 0 0 0 0 0 0
3 3 2 1 0 0 0 0 0 0 0 1 2 2 1 0 0 1 1 1 1 0 0 1 0 0 0 0 0 0 0 0 0 0 0 0 0 0 0 0 0 0 0 0
Wind_Speed
5 7 6 5 3 1 4 6 7 5 4 6 6 5 7 9 9 9 9 10 9 8 7 7 6 5 5 5 4 4 4 4 3 3 2 2 2 2 2 2 2 2 1 1
8 5 3 3 3 4 6 7 6 6 4 4 4 5 7 8 10 9 10 10 9 8 8 7 7 6 5 5 4 4 4 3 3 2 1 1 1 1 2 2 2 2 1 1
4 4 2 5 6 7 7 6 5 4 5 5 5 7 8 8 8 8 9 9 9 9 9 9 8 6 5 4 4 3 3 3 2 2 2 2 2 1 2 1 2 2 2 2
2 2 4 6 6 7 7 4 4 6 8 6 7 7 8 9 9 9 9 9 10 9 9 8 7 6 5 5 4 4 3 3 2 2 3 3 2 1 1 1 2 2 2 2
3 3 5 6 3 6 2 1 5 7 8 7 8 9 4 8 9 10 9 9 8 9 9 8 7 6 5 4 4 4 4 3 2 2 3 2 1 1 1 1 2 1 2 2
2 2 3 2 2 3 2 4 5 8 9 10 7 8 5 5 6 6 7 8 8 8 8 8 7 6 5 4 4 4 4 4 3 3 3 2 2 2 1 1 1 0 1 1
6 6 4 4 5 7 7 7 6 8 8 6 3 6 2 2 1 2 4 6 8 8 8 8 8 8 6 5 5 5 5 4 4 4 3 3 2 2 1 0 1 2 1 2
5 5 5 4 6 5 7 9 8 7 7 4 5 6 2 4 2 1 3 6 7 8 8 8 8 7 7 6 6 5 5 5 4 4 4 3 2 1 2 2 2 2 2 2
4 2 4 2 4 6 7 8 6 8 9 9 5 3 4 4 3 3 5 6 7 7 7 7 7 7 7 7 6 6 6 5 4 4 4 3 3 2 2 1 1 2 2 2
5 5 3 3 6 4 6 5 5 8 8 9 7 7 3 5 4 5 5 5 6 7 7 7 7 7 7 7 6 6 5 5 4 4 3 3 2 2 2 2 3 3 3 3
4 6 4 5 5 4 5 5 7 8 8 9 8 2 4 2 3 4 4 5 6 7 8 7 7 7 7 7 7 6 5 5 4 4 3 2 2 2 2 2 2 2 2 2
3 5 5 4 1 3 6 6 7 8 7 9 9 1 4 2 3 5 5 6 6 7 7 7 7 7 7 6 6 5 4 4 4 3 3 2 2 2 2 2 2 1 1 2
2 5 6 6 7 6 5 5 6 7 7 8 9 1 5 4 4 5 5 6 7 7 7 7 7 6 6 5 5 4 4 4 3 3 3 3 2 2 2 2 2 1 2 2
4 6 7 6 4 4 5 5 6 9 8 8 9 5 4 4 5 5 5 6 7 7 7 7 6 6 5 4 4 4 3 3 3 3 3 3 2 2 2 2 1 1 2 2
5 6 5 5 5 6 7 7 8 9 10 10 8 6 3 5 5 5 6 6 7 7 7 7 6 6 5 4 4 4 4 3 3 3 3 3 2 2 2 1 1 1 2 2
4 5 5 6 6 7 8 8 8 9 9 9 8 5 1 5 6 6 6 7 7 7 7 6 6 6 6 5 4 4 4 4 3 3 3 3 2 2 1 1 1 1 1 2
5 5 7 7 6 9 8 5 7 7 7 8 8 2 5 6 6 7 7 7 7 7 7 7 6 6 6 5 4 4 4 4 3 3 3 3 2 2 1 1 1 2 2 2
7 7 6 6 7 9 1 1 4 6 5 5 3 2 5 5 5 6 7 7 7 7 7 6 6 6 5 5 5 4 4 4 3 3 3 3 2 2 1 1 2 2 2 2
7 7 7 6 8 8 4 4 4 6 6 4 3 4 5 6 6 6 6 6 7 7 6 6 6 6 6 5 5 5 4 4 3 3 3 3 2 2 1 2 2 2 1 2
7 8 8 8 9 8 1 3 2 6 6 4 5 7 7 7 6 6 8 7 7 7 6 6 6 6 6 5 5 5 5 4 3 3 3 3 2 2 1 2 1 1 1 1
8 8 9 10 9 5 1 3 5 7 1 5 5 7 8 6 1 7 10 8 8 8 7 7 7 6 6 6 5 5 5 4 3 3 4 3 2 2 2 1 1 1 1 1
7 7 8 7 9 3 5 5 4 3 3 4 5 7 6 4 6 9 10 9 9 8 8 8 7 6 6 6 6 5 5 4 3 3 4 3 2 1 2 1 1 1 1 1
6 5 4 4 3 2 2 1 1 0 2 4 5 6 7 7 8 9 10 10 9 9 9 8 7 7 6 6 5 5 5 4 4 4 3 3 2 1 1 0 0 0 1 1
5 5 6 6 5 4 4 3 2 2 3 5 6 8 9 9 9 10 9 9 9 9 8 8 8 7 6 6 6 5 5 4 4 3 3 2 2 2 1 1 1 1 1 1
6 6 7 8 5 4 5 4 3 3 5 7 8 8 9 10 10 9 9 9 8 8 8 8 7 7 7 7 6 6 5 5 4 3 3 3 2 2 1 1 1 2 2 3
9 9 9 6 5 5 5 5 5 6 7 8 9 9 9 9 10 9 8 8 8 8 8 8 7 7 7 7 6 6 5 5 4 4 3 2 2 1 1 1 1 1 2 2
Wind_Direction
196 208 190 175 224 264 192 197 177 147 151 214 211 196 179 178 194 192 185 181 177 169 154 146 145 148 144 143 143 147 149 151 166 169 175 169 146 135 114 88 61 40 10 351
195 186 158 183 203 227 211 207 178 150 143 231 219 214 189 192 201 201 198 189 179 171 163 158 160 160 158 156 152 160 156 161 186 173 165 149 112 99 82 76 77 53 44 4
216 110 151 207 202 210 212 224 202 178 170 208 219 214 192 192 204 205 206 197 188 185 176 168 170 170 162 156 151 144 139 154 163 164 156 137 145 147 115 107 97 68 54 50
193 146 206 216 211 233 215 206 213 198 217 214 224 247 184 188 196 205 205 200 196 187 179 171 170 168 165 159 147 133 136 138 145 164 161 171 164 141 94 52 66 68 65 52
172 185 214 224 223 243 280 183 218 224 241 247 226 254 199 180 208 210 205 201 195 181 176 168 166 160 156 152 142 134 125 121 123 128 135 148 130 113 107 100 91 51 71 55
225 215 259 271 251 225 182 186 201 225 238 241 233 252 235 187 226 219 200 192 181 168 163 158 159 153 145 146 142 132 122 118 116 121 121 121 111 105 100 90 75 22 49 42
197 189 190 222 218 189 215 228 227 226 228 241 172 243 256 89 326 248 187 169 162 157 159 159 158 155 148 146 139 130 124 117 115 116 108 105 106 128 128 59 56 358 17 24
226 188 175 204 241 242 231 250 264 273 267 249 196 236 103 83 79 123 143 140 142 149 153 156 157 153 148 146 143 139 132 119 114 111 104 99 106 98 72 42 16 14 6 22
269 215 150 191 242 257 238 245 293 281 272 269 237 214 164 149 145 137 129 131 133 140 145 148 149 148 146 147 144 137 129 117 112 108 108 105 98 78 68 62 15 31 16 17
287 260 197 191 216 215 276 270 253 258 267 266 248 237 218 172 172 156 146 136 130 135 139 141 143 141 141 142 140 140 132 126 123 118 108 99 96 90 87 57 42 26 17 17
269 257 218 204 232 241 229 232 258 268 276 279 271 266 59 118 160 160 149 139 137 140 140 140 141 142 144 141 140 140 136 132 127 116 108 103 93 90 99 80 58 35 13 2
241 266 251 232 216 274 261 266 262 268 267 268 281 307 87 128 144 145 141 135 135 136 140 143 141 142 142 143 143 142 141 137 133 122 119 113 107 102 87 77 62 43 14 354
214 241 243 215 195 199 233 250 258 267 272 267 269 237 114 129 136 138 140 138 139 137 141 142 142 144 144 142 138 137 139 131 128 124 123 113 111 98 78 62 50 31 18 3
264 255 269 283 308 297 262 259 253 254 261 266 269 274 184 169 157 146 146 146 145 144 146 146 148 147 141 137 138 137 134 134 135 133 122 113 102 96 83 67 58 34 20 9
251 248 255 274 279 272 272 273 266 258 269 277 283 280 236 177 172 154 149 151 151 153 154 156 156 152 147 144 143 140 137 137 142 140 127 116 109 106 93 73 49 31 16 9
243 256 251 257 258 262 266 266 265 266 267 266 269 272 111 148 157 153 153 159 163 162 160 160 159 156 153 153 150 144 143 139 143 140 131 120 120 109 101 93 76 50 34 10
227 238 254 258 265 265 255 256 258 259 261 266 271 268 158 172 171 166 164 168 166 164 164 162 161 159 156 156 155 151 145 144 145 137 129 121 119 108 103 107 89 63 43 22
238 243 254 261 258 258 315 307 269 265 265 264 261 184 185 172 161 164 167 167 163 163 163 162 160 157 157 156 154 151 148 147 143 135 125 121 117 107 104 90 68 46 30 18
230 239 254 256 258 263 235 212 234 259 260 232 209 164 150 140 153 162 161 163 160 158 156 158 160 157 155 155 155 155 154 153 148 141 135 124 115 102 101 73 54 34 17 358
204 229 247 251 265 268 281 130 214 259 243 162 171 167 163 176 203 164 153 157 147 144 147 152 156 154 150 150 157 159 156 153 143 135 125 119 114 100 80 68 49 33 6 348
204 219 237 250 257 261 94 146 206 249 36 141 177 175 181 202 12 125 148 154 147 145 145 150 152 150 147 152 156 156 148 139 130 127 127 119 112 102 74 60 42 356 337 3
238 237 234 245 252 247 133 180 235 1 78 151 170 178 179 141 125 140 148 149 149 149 149 152 150 147 147 154 154 148 140 135 132 129 130 127 123 110 89 57 25 358 322 223
243 260 268 263 289 51 163 215 45 101 169 171 171 168 158 151 148 148 148 149 153 153 150 153 151 148 149 156 157 147 139 140 140 134 132 134 133 135 129 202 283 259 253 278
222 238 249 246 230 222 220 221 199 192 182 165 158 159 160 156 152 148 147 151 153 153 153 155 156 152 150 155 155 149 146 150 146 141 145 155 160 164 145 253 274 314 323 325
257 224 235 243 237 221 211 208 185 161 157 154 154 156 156 155 155 151 151 154 155 153 155 159 160 157 153 154 155 156 153 155 154 154 165 178 174 152 193 236 330 315 352 346
233 234 241 253 221 225 199 184 176 167 165 163 159 154 155 156 154 155 155 155 156 156 158 160 162 161 158 159 160 161 165 168 172 170 176 185 173 163 214 223 188 187 258 239